TimeCST,TemperatureF,Dew PointF,Humidity,Sea Level PressureIn,VisibilityMPH,Wind Direction,Wind SpeedMPH,Gust SpeedMPH,PrecipitationIn,Events,Conditions,WindDirDegrees,DateUTC
12:15 AM,19.4,-0.4,42,30.16,10.0,Calm,Calm,-,N/A,,Clear,0,2012-12-12 06:15:00
12:35 AM,19.4,-0.4,42,30.16,10.0,Calm,Calm,-,N/A,,Clear,0,2012-12-12 06:35:00
12:55 AM,19.4,-0.4,42,30.16,10.0,Calm,Calm,-,N/A,,Clear,0,2012-12-12 06:55:00
1:15 AM,19.4,-0.4,42,30.16,10.0,NNW,5.8,-,N/A,,Clear,330,2012-12-12 07:15:00
1:35 AM,17.6,-0.4,45,30.17,10.0,Calm,Calm,-,N/A,,Clear,0,2012-12-12 07:35:00
1:55 AM,15.8,-2.2,45,30.16,10.0,Calm,Calm,-,N/A,,Clear,0,2012-12-12 07:55:00
2:15 AM,15.8,-0.4,49,30.16,10.0,Calm,Calm,-,N/A,,Clear,0,2012-12-12 08:15:00
2:35 AM,15.8,-0.4,49,30.16,10.0,NNW,6.9,20.7,N/A,,Clear,340,2012-12-12 08:35:00
2:55 AM,17.6,-0.4,45,30.16,10.0,North,6.9,-,N/A,,Clear,350,2012-12-12 08:55:00
3:15 AM,15.8,-2.2,45,30.15,10.0,Calm,Calm,-,N/A,,Clear,0,2012-12-12 09:15:00
3:35 AM,15.8,-0.4,49,30.15,10.0,Calm,Calm,-,N/A,,Clear,0,2012-12-12 09:35:00
3:55 AM,15.8,-0.4,49,30.15,10.0,Calm,Calm,-,N/A,,Clear,0,2012-12-12 09:55:00
4:15 AM,15.8,-0.4,49,30.15,10.0,Calm,Calm,-,N/A,,Clear,0,2012-12-12 10:15:00
4:35 AM,15.8,1.4,53,30.15,10.0,Calm,Calm,-,N/A,,Clear,0,2012-12-12 10:35:00
4:55 AM,17.6,1.4,49,30.15,10.0,Calm,Calm,-,N/A,,Clear,0,2012-12-12 10:55:00
5:15 AM,15.8,-0.4,49,30.15,10.0,Calm,Calm,-,N/A,,Clear,0,2012-12-12 11:15:00
5:35 AM,14.0,-0.4,53,30.15,10.0,NNW,4.6,19.6,N/A,,Clear,330,2012-12-12 11:35:00
5:55 AM,15.8,1.4,53,30.15,10.0,Calm,Calm,-,N/A,,Clear,0,2012-12-12 11:55:00
6:15 AM,15.8,1.4,53,30.16,10.0,Calm,Calm,-,N/A,,Clear,0,2012-12-12 12:15:00
6:35 AM,15.8,1.4,53,30.16,10.0,Calm,Calm,-,N/A,,Clear,0,2012-12-12 12:35:00
6:55 AM,15.8,1.4,53,30.17,10.0,Calm,Calm,-,N/A,,Clear,0,2012-12-12 12:55:00
7:15 AM,15.8,1.4,53,30.17,10.0,Calm,Calm,-,N/A,,Clear,0,2012-12-12 13:15:00
7:35 AM,17.6,3.2,53,30.18,10.0,Calm,Calm,-,N/A,,Clear,0,2012-12-12 13:35:00
7:55 AM,17.6,1.4,49,30.18,10.0,Calm,Calm,-,N/A,,Clear,0,2012-12-12 13:55:00
8:15 AM,19.4,3.2,49,30.19,10.0,Calm,Calm,-,N/A,,Clear,0,2012-12-12 14:15:00
8:35 AM,24.8,6.8,46,30.19,10.0,Calm,Calm,-,N/A,,Clear,0,2012-12-12 14:35:00
8:55 AM,30.2,8.6,40,30.20,10.0,Calm,Calm,-,N/A,,Clear,0,2012-12-12 14:55:00
9:15 AM,35.6,8.6,33,30.20,9.0,Calm,Calm,-,N/A,,Clear,0,2012-12-12 15:15:00
9:35 AM,39.2,8.6,28,30.20,10.0,Calm,Calm,-,N/A,,Clear,0,2012-12-12 15:35:00
9:55 AM,41.0,10.4,29,30.21,10.0,Calm,Calm,-,N/A,,Clear,0,2012-12-12 15:55:00
10:15 AM,44.6,10.4,25,30.22,10.0,Calm,Calm,-,N/A,,Clear,0,2012-12-12 16:15:00
10:35 AM,46.4,10.4,23,30.22,10.0,Calm,Calm,-,N/A,,Clear,0,2012-12-12 16:35:00
10:55 AM,48.2,10.4,22,30.22,10.0,South,11.5,-,N/A,,Clear,190,2012-12-12 16:55:00
11:15 AM,50.0,10.4,20,30.22,10.0,South,9.2,-,N/A,,Clear,180,2012-12-12 17:15:00
11:35 AM,51.8,10.4,19,30.22,10.0,SSE,8.1,-,N/A,,Clear,150,2012-12-12 17:35:00
11:55 AM,53.6,12.2,19,30.21,10.0,SSE,8.1,-,N/A,,Clear,160,2012-12-12 17:55:00
12:15 PM,55.4,12.2,18,30.20,10.0,South,11.5,-,N/A,,Clear,180,2012-12-12 18:15:00
12:35 PM,55.4,12.2,18,30.19,10.0,South,10.4,-,N/A,,Clear,180,2012-12-12 18:35:00
12:55 PM,57.2,12.2,17,30.17,10.0,South,11.5,-,N/A,,Clear,170,2012-12-12 18:55:00
1:15 PM,57.2,15.8,20,30.16,10.0,SSE,11.5,17.3,N/A,,Clear,160,2012-12-12 19:15:00
1:35 PM,57.2,15.8,20,30.15,10.0,South,11.5,-,N/A,,Clear,170,2012-12-12 19:35:00
1:55 PM,59.0,15.8,19,30.13,10.0,SSE,11.5,16.1,N/A,,Clear,160,2012-12-12 19:55:00
2:15 PM,60.8,17.6,19,30.12,10.0,South,12.7,18.4,N/A,,Clear,170,2012-12-12 20:15:00
2:35 PM,62.6,17.6,18,30.12,10.0,South,18.4,-,N/A,,Clear,190,2012-12-12 20:35:00
2:55 PM,62.6,19.4,19,30.12,10.0,South,15.0,20.7,N/A,,Clear,170,2012-12-12 20:55:00
3:15 PM,60.8,19.4,20,30.12,10.0,South,11.5,21.9,N/A,,Clear,170,2012-12-12 21:15:00
3:35 PM,60.8,19.4,20,30.11,10.0,South,15.0,19.6,N/A,,Clear,180,2012-12-12 21:35:00
3:55 PM,60.8,19.4,20,30.11,10.0,South,11.5,19.6,N/A,,Clear,180,2012-12-12 21:55:00
4:15 PM,60.8,21.2,22,30.11,10.0,South,11.5,-,N/A,,Clear,170,2012-12-12 22:15:00
4:35 PM,60.8,21.2,22,30.11,10.0,South,13.8,-,N/A,,Clear,180,2012-12-12 22:35:00
4:55 PM,59.0,21.2,23,30.11,10.0,South,15.0,-,N/A,,Clear,180,2012-12-12 22:55:00
5:15 PM,57.2,21.2,25,30.11,10.0,South,11.5,-,N/A,,Clear,170,2012-12-12 23:15:00
5:35 PM,57.2,21.2,25,30.11,10.0,South,8.1,-,N/A,,Clear,180,2012-12-12 23:35:00
5:55 PM,53.6,21.2,28,30.12,10.0,Calm,Calm,-,N/A,,Clear,0,2012-12-12 23:55:00
6:15 PM,51.8,17.6,26,30.12,10.0,Calm,Calm,-,N/A,,Clear,0,2012-12-13 00:15:00
6:55 PM,46.4,17.6,32,30.13,10.0,Calm,Calm,-,N/A,,Clear,0,2012-12-13 00:55:00
7:15 PM,46.4,15.8,29,30.14,10.0,Calm,Calm,-,N/A,,Clear,0,2012-12-13 01:15:00
7:35 PM,44.6,15.8,31,30.15,10.0,Calm,Calm,-,N/A,,Clear,0,2012-12-13 01:35:00
7:55 PM,42.8,14.0,31,30.16,10.0,Calm,Calm,-,N/A,,Clear,0,2012-12-13 01:55:00
8:15 PM,35.6,10.4,35,30.16,10.0,Calm,Calm,-,N/A,,Clear,0,2012-12-13 02:15:00
8:35 PM,35.6,12.2,38,30.16,10.0,Calm,Calm,-,N/A,,Clear,0,2012-12-13 02:35:00
8:55 PM,37.4,12.2,36,30.16,10.0,Calm,Calm,-,N/A,,Clear,0,2012-12-13 02:55:00
9:15 PM,33.8,10.4,38,30.17,10.0,Calm,Calm,-,N/A,,Clear,0,2012-12-13 03:15:00
9:35 PM,30.2,8.6,40,30.16,10.0,Calm,Calm,-,N/A,,Clear,0,2012-12-13 03:35:00
9:55 PM,30.2,10.4,44,30.16,10.0,Calm,Calm,-,N/A,,Clear,0,2012-12-13 03:55:00
10:15 PM,32.0,12.2,44,30.17,10.0,Calm,Calm,-,N/A,,Clear,0,2012-12-13 04:15:00
10:35 PM,33.8,12.2,41,30.17,10.0,Calm,Calm,-,N/A,,Clear,0,2012-12-13 04:35:00
10:55 PM,33.8,12.2,41,30.17,10.0,Calm,Calm,-,N/A,,Clear,0,2012-12-13 04:55:00
11:15 PM,33.8,12.2,41,30.17,10.0,Calm,Calm,-,N/A,,Clear,0,2012-12-13 05:15:00
11:35 PM,33.8,12.2,41,30.17,10.0,Calm,Calm,-,N/A,,Clear,0,2012-12-13 05:35:00
11:55 PM,32.0,12.2,44,30.17,10.0,Calm,Calm,-,N/A,,Clear,0,2012-12-13 05:55:00